�N����,����,�~����,�C��,���x,�C��,����,���ϕ���,�ő�u�ԕ���,�ő厞����,���˗�,�I�_���x,�n�����x,�ő啗���N��,DTYPE
"23/03/28","00:10",0.0,5.9,85.5,1016.1,331.2,2.6,4.1,334.8,0.00,3.7,12.3,"00:01:12",1
"23/03/28","00:20",0.0,5.8,86.1,1015.9,332.9,2.2,3.5,335.2,0.00,3.7,12.0,"00:19:44",1
"23/03/28","00:30",0.0,5.7,86.5,1015.6,328.6,3.1,4.0,333.6,0.00,3.7,12.1,"00:29:28",1
"23/03/28","00:40",0.0,5.8,87.0,1015.6,328.1,3.9,4.8,322.8,0.00,3.8,12.0,"00:33:08",1
"23/03/28","00:50",0.0,5.8,87.1,1015.6,330.4,4.7,7.2,326.7,0.00,3.9,12.0,"00:43:56",1
"23/03/28","01:00",0.0,5.4,87.8,1015.6,333.3,3.2,4.3,342.7,0.00,3.6,12.0,"00:55:58",1
"23/03/28","01:10",0.0,5.3,88.5,1015.6,338.0,3.1,4.1,330.4,0.00,3.6,11.9,"01:01:16",1
"23/03/28","01:20",0.0,5.4,88.9,1015.9,344.6,2.8,4.1,328.0,0.00,3.8,11.9,"01:12:04",1
"23/03/28","01:30",0.0,5.3,89.3,1015.6,335.4,2.5,4.0,345.6,0.00,3.7,12.0,"01:29:56",1
"23/03/28","01:40",0.0,5.3,89.5,1015.6,333.5,2.5,3.5,334.9,0.00,3.8,11.7,"01:30:30",1
"23/03/28","01:50",0.0,5.4,89.7,1015.4,318.8,2.8,4.9,309.0,0.00,3.9,11.7,"01:45:46",1
"23/03/28","02:00",0.0,5.6,89.5,1015.6,331.8,3.1,4.9,315.8,0.00,4.1,11.9,"01:52:18",1
"23/03/28","02:10",0.0,5.3,89.6,1015.6,333.1,2.7,3.7,337.9,0.00,3.8,11.7,"02:04:04",1
"23/03/28","02:20",0.0,5.3,89.9,1015.6,324.1,3.5,5.0,322.2,0.00,3.8,11.5,"02:13:32",1
"23/03/28","02:30",0.0,5.1,90.1,1015.6,331.9,2.5,3.4,337.7,0.00,3.7,11.7,"02:26:26",1
"23/03/28","02:40",0.0,5.1,90.4,1015.6,318.6,2.8,3.9,302.0,0.00,3.7,11.7,"02:33:00",1
"23/03/28","02:50",0.0,5.1,90.7,1015.4,317.4,2.6,3.6,317.0,0.00,3.7,11.6,"02:44:56",1
"23/03/28","03:00",0.0,4.9,91.0,1015.6,317.2,2.5,3.6,311.3,0.00,3.6,11.6,"02:52:24",1
"23/03/28","03:10",0.0,5.0,91.3,1015.6,311.2,3.5,4.4,314.6,0.00,3.7,11.4,"03:09:24",1
"23/03/28","03:20",0.0,4.7,91.6,1015.9,293.9,1.8,3.9,313.2,0.00,3.5,11.5,"03:10:44",1
"23/03/28","03:30",0.0,4.4,91.9,1015.9,310.5,1.1,2.1,300.7,0.00,3.2,11.4,"03:28:12",1
"23/03/28","03:40",0.0,4.1,92.1,1015.6,297.5,1.3,1.7,316.7,0.00,3.0,11.4,"03:30:20",1
"23/03/28","03:50",0.0,4.0,92.4,1015.9,304.2,1.7,2.6,333.2,0.00,2.9,11.4,"03:48:12",1
"23/03/28","04:00",0.0,4.0,92.7,1015.9,317.5,2.0,2.5,335.2,0.00,3.0,11.2,"03:52:34",1
"23/03/28","04:10",0.0,4.3,93.1,1015.9,337.4,2.8,4.0,334.0,0.00,3.3,11.3,"04:09:24",1
"23/03/28","04:20",0.0,4.5,93.3,1015.9,327.7,4.0,5.1,307.2,0.00,3.6,11.5,"04:15:30",1
"23/03/28","04:30",0.0,4.7,93.5,1015.6,332.9,3.9,5.5,312.8,0.00,3.8,11.2,"04:29:12",1
"23/03/28","04:40",0.0,4.9,93.5,1015.9,328.8,4.0,6.0,341.9,0.00,4.0,11.3,"04:32:26",1
"23/03/28","04:50",0.0,5.0,93.5,1015.9,328.1,3.4,5.2,340.8,0.00,4.1,11.0,"04:45:16",1
"23/03/28","05:00",0.0,4.9,93.5,1016.1,323.9,2.1,3.7,312.6,0.00,4.0,11.2,"04:58:38",1
"23/03/28","05:10",0.0,5.0,93.7,1015.9,330.0,4.0,6.3,344.7,0.00,4.1,11.1,"05:06:32",1
"23/03/28","05:20",0.0,5.1,93.6,1016.6,324.9,4.7,6.8,325.7,0.00,4.2,11.2,"05:11:58",1
"23/03/28","05:30",0.0,5.1,93.6,1016.4,321.6,4.2,5.7,316.0,0.00,4.2,11.1,"05:23:52",1
"23/03/28","05:40",0.0,4.9,93.6,1016.4,318.6,3.1,6.2,329.5,0.00,4.0,11.1,"05:36:32",1
"23/03/28","05:50",0.0,4.8,93.6,1016.4,314.1,2.3,4.4,313.3,0.00,3.9,10.9,"05:43:36",1
"23/03/28","06:00",0.0,4.6,93.7,1016.8,310.5,1.6,4.4,305.5,0.00,3.7,11.0,"05:58:26",1
"23/03/28","06:10",0.0,4.8,93.7,1016.6,319.6,2.8,7.0,330.8,0.00,3.9,10.8,"06:09:14",1
"23/03/28","06:20",0.0,4.7,93.7,1016.6,334.9,2.7,5.1,327.6,0.00,3.8,10.8,"06:14:18",1
"23/03/28","06:30",0.0,4.4,93.9,1016.8,334.1,2.8,4.3,339.1,0.00,3.5,10.9,"06:24:16",1
"23/03/28","06:40",0.0,4.3,94.1,1016.8,335.4,3.9,5.6,328.4,0.00,3.5,10.7,"06:34:02",1
"23/03/28","06:50",0.0,4.5,94.3,1017.1,335.9,4.4,5.8,329.4,0.00,3.7,10.8,"06:47:16",1
"23/03/28","07:00",0.0,4.4,94.2,1017.3,333.7,3.9,5.8,344.5,0.00,3.6,10.7,"06:52:48",1
"23/03/28","07:10",0.0,4.6,94.5,1017.3,329.7,4.0,5.4,325.5,0.00,3.8,10.5,"07:00:24",1
"23/03/28","07:20",0.0,5.0,94.4,1017.3,334.9,4.4,6.5,346.6,0.01,4.2,10.6,"07:12:16",1
"23/03/28","07:30",0.0,5.5,94.3,1017.8,328.1,3.9,5.2,335.6,0.02,4.7,10.7,"07:21:06",1
"23/03/28","07:40",0.0,5.9,94.1,1017.8,319.2,2.7,4.3,326.0,0.04,5.1,10.7,"07:31:36",1
"23/03/28","07:50",0.0,6.7,93.7,1018.2,308.1,1.0,3.3,342.5,0.05,5.8,10.7,"07:40:16",1
"23/03/28","08:00",0.0,7.3,93.4,1018.7,211.2,0.5,1.0,148.3,0.08,6.3,10.6,"07:54:50",1
"23/03/28","08:10",0.0,7.7,92.1,1018.7,249.2,0.6,1.4,242.4,0.11,6.5,10.8,"08:05:10",1
"23/03/28","08:20",0.0,8.1,91.6,1019.0,260.4,1.0,2.2,260.2,0.13,6.9,10.8,"08:19:12",1
"23/03/28","08:30",0.0,8.4,90.3,1019.2,240.6,0.8,1.9,242.9,0.16,6.9,10.6,"08:27:36",1
"23/03/28","08:40",0.0,9.0,88.8,1019.4,212.7,0.8,1.9,253.5,0.19,7.3,10.7,"08:35:44",1
"23/03/28","08:50",0.0,9.7,87.2,1019.7,251.8,0.7,1.7,238.6,0.22,7.7,10.5,"08:47:48",1
"23/03/28","09:00",0.0,9.9,85.1,1019.9,240.2,0.8,1.8,255.1,0.25,7.6,10.7,"08:51:02",1
"23/03/28","09:10",0.0,9.8,82.2,1019.9,135.9,0.8,1.7,112.0,0.28,7.0,10.7,"09:09:48",1
"23/03/28","09:20",0.0,10.4,80.3,1020.1,168.1,0.8,1.9,112.4,0.30,7.2,10.6,"09:10:52",1
"23/03/28","09:30",0.0,11.1,78.2,1020.1,197.5,0.7,1.7,146.5,0.33,7.5,10.8,"09:26:50",1
"23/03/28","09:40",0.0,12.0,75.6,1019.4,240.5,0.6,1.4,262.5,0.36,7.9,10.8,"09:35:20",1
"23/03/28","09:50",0.0,12.7,73.1,1019.7,332.6,0.3,1.4,140.1,0.38,8.0,10.8,"09:40:56",1
"23/03/28","10:00",0.0,12.7,70.0,1019.7,180.3,0.7,1.6,110.8,0.40,7.4,10.9,"09:56:08",1
"23/03/28","10:10",0.0,12.6,68.5,1019.7,122.4,0.8,2.0,126.6,0.43,7.0,10.9,"10:06:32",1
"23/03/28","10:20",0.0,12.9,67.5,1019.7,133.6,1.2,3.3,209.4,0.45,7.1,11.1,"10:18:48",1
"23/03/28","10:30",0.0,13.7,64.9,1019.2,202.4,1.1,2.4,126.9,0.46,7.3,11.1,"10:28:40",1
"23/03/28","10:40",0.0,14.1,62.8,1019.2,127.8,1.1,2.5,77.1,0.48,7.2,11.2,"10:39:52",1
"23/03/28","10:50",0.0,14.7,60.7,1019.0,179.6,1.2,3.3,236.6,0.50,7.2,11.2,"10:47:04",1
"23/03/28","11:00",0.0,14.7,57.5,1018.7,128.8,1.7,3.7,103.6,0.52,6.4,11.3,"10:52:24",1
"23/03/28","11:10",0.0,15.1,53.6,1018.7,135.1,1.5,3.3,108.4,0.53,5.8,11.3,"11:08:50",1
"23/03/28","11:20",0.0,15.2,53.0,1018.5,146.9,2.0,3.7,135.7,0.55,5.7,11.6,"11:17:44",1
"23/03/28","11:30",0.0,16.0,51.2,1018.5,183.9,1.2,2.7,106.8,0.56,6.0,11.4,"11:29:04",1
"23/03/28","11:40",0.0,15.7,48.5,1018.0,158.5,2.0,3.5,175.6,0.57,4.9,11.8,"11:33:04",1
"23/03/28","11:50",0.0,16.3,47.3,1018.0,14.4,1.5,3.2,62.0,0.58,5.1,11.6,"11:43:36",1
"23/03/28","12:00",0.0,16.2,46.2,1018.5,337.9,3.0,7.2,337.4,0.59,4.7,11.9,"11:56:56",1
"23/03/28","12:10",0.0,16.7,42.2,1017.8,357.0,2.0,4.5,359.9,0.59,3.8,11.9,"12:08:56",1
"23/03/28","12:20",0.0,17.1,40.8,1017.5,29.9,1.3,3.4,0.9,0.59,3.7,11.9,"12:15:36",1
"23/03/28","12:30",0.0,16.7,42.4,1017.3,348.0,2.8,5.1,349.3,0.60,3.9,12.2,"12:27:04",1
"23/03/28","12:40",0.0,16.7,41.4,1017.3,326.1,3.2,6.3,330.3,0.60,3.6,12.2,"12:36:16",1
"23/03/28","12:50",0.0,16.8,38.7,1017.1,348.3,3.4,6.7,310.2,0.60,2.7,12.1,"12:47:52",1
"23/03/28","13:00",0.0,17.7,37.6,1016.8,19.8,1.8,4.7,355.6,0.60,3.1,12.5,"12:58:40",1
"23/03/28","13:10",0.0,18.1,36.6,1016.8,44.4,1.6,4.1,344.1,0.60,3.1,12.2,"13:00:24",1
"23/03/28","13:20",0.0,18.1,39.0,1016.6,334.3,3.0,5.2,334.5,0.59,4.0,12.6,"13:15:20",1
"23/03/28","13:30",0.0,17.0,37.1,1016.8,331.6,5.1,8.3,331.1,0.59,2.3,12.7,"13:25:44",1
"23/03/28","13:40",0.0,17.5,41.2,1016.6,323.7,4.0,8.1,331.5,0.59,4.2,12.7,"13:35:04",1
"23/03/28","13:50",0.0,17.5,37.1,1016.1,348.9,3.6,6.2,345.1,0.58,2.7,12.9,"13:41:04",1
"23/03/28","14:00",0.0,17.7,37.5,1016.1,359.9,2.8,7.0,2.8,0.57,3.1,13.0,"13:56:56",1
"23/03/28","14:10",0.0,17.5,39.7,1016.1,339.6,4.5,9.4,337.1,0.56,3.7,12.9,"14:02:08",1
"23/03/28","14:20",0.0,18.2,36.1,1015.9,356.1,2.1,4.8,28.1,0.54,3.0,13.0,"14:10:32",1
"23/03/28","14:30",0.0,18.1,35.0,1015.9,351.3,3.4,6.6,343.1,0.47,2.5,13.2,"14:20:02",1
"23/03/28","14:40",0.0,17.5,35.4,1015.4,343.7,4.1,7.9,347.2,0.52,2.1,13.3,"14:34:48",1
"23/03/28","14:50",0.0,17.9,37.4,1015.6,352.6,3.5,6.7,343.6,0.50,3.2,13.2,"14:42:48",1
"23/03/28","15:00",0.0,17.6,36.8,1015.4,346.0,4.0,9.4,342.8,0.48,2.7,13.1,"14:59:12",1
"23/03/28","15:10",0.0,17.8,36.5,1015.4,339.1,3.6,6.7,327.3,0.46,2.8,13.4,"15:00:24",1
"23/03/28","15:20",0.0,17.5,36.2,1015.6,348.0,4.1,9.1,336.4,0.44,2.4,13.4,"15:10:56",1
"23/03/28","15:30",0.0,17.5,36.3,1015.4,348.6,3.6,7.4,341.3,0.42,2.4,13.4,"15:25:28",1
"23/03/28","15:40",0.0,17.3,34.3,1015.6,346.5,3.7,7.7,329.6,0.40,1.5,13.7,"15:39:44",1
"23/03/28","15:50",0.0,17.7,32.9,1015.6,349.6,2.6,5.4,323.4,0.37,1.2,13.4,"15:43:28",1
"23/03/28","16:00",0.0,18.0,34.3,1015.9,355.5,2.6,5.4,358.0,0.35,2.1,13.6,"15:58:00",1
"23/03/28","16:10",0.0,17.4,35.6,1015.9,340.6,4.1,7.9,345.4,0.32,2.1,13.4,"16:06:08",1
"23/03/28","16:20",0.0,17.5,34.7,1015.9,339.8,3.2,5.9,328.6,0.30,1.8,13.6,"16:10:40",1
"23/03/28","16:30",0.0,17.0,34.6,1015.9,348.2,3.9,6.2,333.5,0.27,1.3,13.5,"16:22:48",1
"23/03/28","16:40",0.0,16.9,34.7,1016.1,345.8,3.6,7.3,349.0,0.24,1.3,13.7,"16:33:04",1
"23/03/28","16:50",0.0,16.5,36.1,1016.1,333.8,4.6,12.1,332.8,0.21,1.5,13.8,"16:44:16",1
"23/03/28","17:00",0.0,16.2,35.8,1015.9,339.6,4.5,7.7,337.6,0.19,1.1,13.8,"16:54:24",1
"23/03/28","17:10",0.0,16.1,37.1,1016.4,340.0,4.5,7.1,356.0,0.16,1.5,13.7,"17:05:20",1
"23/03/28","17:20",0.0,15.8,37.2,1016.6,340.3,4.9,7.8,351.1,0.13,1.3,13.6,"17:13:28",1
"23/03/28","17:30",0.0,15.7,37.2,1016.6,345.4,4.1,6.4,348.9,0.11,1.2,13.6,"17:21:36",1
"23/03/28","17:40",0.0,15.6,37.8,1016.4,344.9,3.4,6.0,358.5,0.08,1.3,13.7,"17:33:22",1
"23/03/28","17:50",0.0,15.1,37.5,1016.6,335.5,3.6,5.9,339.8,0.06,0.8,13.7,"17:40:02",1
"23/03/28","18:00",0.0,14.8,37.7,1016.6,328.7,3.4,5.2,342.8,0.04,0.6,13.7,"17:51:08",1
"23/03/28","18:10",0.0,14.8,38.1,1016.4,341.1,2.7,4.8,329.0,0.03,0.7,13.6,"18:09:58",1
"23/03/28","18:20",0.0,14.5,39.5,1016.8,334.7,2.5,4.1,339.4,0.01,0.9,13.7,"18:11:42",1
"23/03/28","18:30",0.0,13.6,38.7,1017.1,327.5,3.6,5.4,338.5,0.00,-0.2,13.5,"18:29:30",1
"23/03/28","18:40",0.0,13.2,40.8,1016.8,315.0,3.2,4.7,320.1,0.00,0.2,13.7,"18:31:06",1
"23/03/28","18:50",0.0,13.0,41.7,1016.6,306.9,3.0,4.8,317.0,0.00,0.3,13.5,"18:46:48",1
"23/03/28","19:00",0.0,12.5,43.8,1017.1,324.9,3.0,4.0,299.5,0.00,0.6,13.5,"18:56:14",1
"23/03/28","19:10",0.0,11.5,50.4,1016.8,334.7,2.5,2.7,337.2,0.00,1.6,13.7,"19:09:10",1
"23/03/28","19:20",0.0,10.7,53.4,1017.1,334.3,2.6,3.7,340.3,0.00,1.7,13.3,"19:17:58",1
"23/03/28","19:30",0.0,10.2,55.6,1017.1,333.0,2.6,3.5,343.3,0.00,1.8,13.7,"19:22:16",1
"23/03/28","19:40",0.0,10.1,56.0,1017.1,321.4,2.3,3.2,318.2,0.00,1.8,13.5,"19:33:52",1
"23/03/28","19:50",0.0,9.7,56.0,1017.1,326.7,1.5,2.1,328.5,0.00,1.4,13.2,"19:46:28",1
"23/03/28","20:00",0.0,9.4,60.1,1017.5,329.4,2.1,3.3,340.4,0.00,2.1,13.3,"19:59:36",1
"23/03/28","20:10",0.0,8.8,63.9,1017.3,335.9,2.6,3.7,341.8,0.00,2.4,13.1,"20:00:02",1
"23/03/28","20:20",0.0,8.3,65.2,1017.3,333.0,3.0,3.9,343.5,0.00,2.2,13.3,"20:10:32",1
"23/03/28","20:30",0.0,8.1,64.0,1017.5,326.3,2.3,3.1,335.6,0.00,1.7,13.0,"20:21:20",1
"23/03/28","20:40",0.0,8.1,60.8,1017.5,306.8,2.0,3.3,306.9,0.00,1.0,12.9,"20:35:04",1
"23/03/28","20:50",0.0,8.3,56.4,1017.8,290.2,1.5,3.3,314.5,0.00,0.2,13.1,"20:40:08",1
"23/03/28","21:00",0.0,8.5,53.6,1018.0,318.3,1.8,3.2,341.1,0.00,-0.3,12.9,"20:55:36",1
"23/03/28","21:10",0.0,8.3,56.2,1017.8,330.5,3.1,5.4,348.3,0.00,0.1,13.0,"21:07:52",1
"23/03/28","21:20",0.0,8.5,54.8,1018.0,334.6,3.1,5.2,337.6,0.00,0.0,12.8,"21:15:04",1
"23/03/28","21:30",0.0,8.9,52.2,1018.2,349.7,2.0,4.3,339.1,0.00,-0.3,12.7,"21:28:02",1
"23/03/28","21:40",0.0,8.6,53.7,1018.7,330.0,1.2,2.5,310.5,0.00,-0.2,12.8,"21:39:04",1
"23/03/28","21:50",0.0,7.8,56.6,1018.5,333.2,2.1,3.3,336.9,0.00,-0.2,12.8,"21:42:40",1
"23/03/28","22:00",0.0,7.9,57.1,1018.0,346.0,1.7,3.2,346.5,0.00,0.0,12.7,"21:53:04",1
"23/03/28","22:10",0.0,7.3,60.1,1018.5,328.3,2.1,3.2,309.5,0.00,0.1,12.6,"22:05:52",1
"23/03/28","22:20",0.0,6.7,63.3,1018.0,311.1,2.7,3.7,309.8,0.00,0.3,12.6,"22:14:48",1
"23/03/28","22:30",0.0,6.9,64.6,1018.2,318.9,3.6,4.4,317.9,0.00,0.7,12.5,"22:22:48",1
"23/03/28","22:40",0.0,7.2,64.2,1018.2,314.4,4.2,5.8,311.7,0.00,0.9,12.5,"22:36:40",1
"23/03/28","22:50",0.0,6.7,65.2,1018.2,310.6,3.5,5.6,315.7,0.00,0.7,12.4,"22:40:16",1
"23/03/28","23:00",0.0,6.6,66.2,1018.0,311.7,2.7,4.4,330.1,0.00,0.8,12.5,"22:52:16",1
"23/03/28","23:10",0.0,6.3,67.3,1017.8,293.9,2.3,5.5,335.5,0.00,0.7,12.3,"23:07:56",1
"23/03/28","23:20",0.0,6.6,67.8,1017.3,323.5,3.2,5.2,332.5,0.00,1.1,12.3,"23:17:20",1
"23/03/28","23:30",0.0,6.5,68.3,1017.8,318.0,3.5,5.1,313.7,0.00,1.1,12.3,"23:25:12",1
"23/03/28","23:40",0.0,6.4,68.7,1017.8,331.6,2.8,4.4,317.9,0.00,1.1,12.1,"23:31:20",1
"23/03/28","23:50",0.0,6.1,69.5,1017.5,333.7,3.1,4.7,347.4,0.00,1.0,12.3,"23:43:52",1
"23/03/28","24:00",0.0,6.2,69.7,1017.8,329.5,4.2,5.9,319.4,0.00,1.1,12.3,"23:58:50",1
